[[{"header":{"parameterUnit":"m.s-1","parameterCategory":1,"la1":30.2991,"la2":30.254,"lo1":-89.0895,"lo2":-89.0444,"dy":0.0017,"dx":0.0017,"nx":28,"ny":28,"refTime":"2025-04-25T03:00:00:Z","depth":0,"parameterNumber":2,"parameterNumberName":"U-component_of_WINDS"},"data":[0,0,0,0,0,0,0,0,0,0,0,0,0,0,0,0,0,0,0,0,0,0,0,0,0,0,0,0,0,0,0,0,0,0,0,0,0,0,0,0,0,0,0,0,0,0,0,0,0,0,0,0,0,0,0,0,0,0,-3.4361,-3.4361,0,-3.4413,-3.4413,-3.4414,-3.4412,-3.4411,-3.4411,-3.441,-3.4461,-3.4463,-3.4465,0,0,0,0,0,0,0,0,0,0,0,0,0,-3.4258,-3.426,-3.4361,-3.4361,-3.4362,-3.4413,-3.4413,-3.4414,-3.4412,-3.4411,-3.4411,-3.441,-3.446,-3.4462,-3.4465,0,0,0,0,0,0,0,0,0,0,0,0,0,-3.4306,-3.4261,-3.436,-3.4367,-3.4368,-3.4413,-3.4413,-3.4414,-3.4413,-3.4411,-3.441,-3.4409,-3.4459,-3.4462,-3.4465,-3.4505,0,0,-3.4474,-3.4476,0,0,0,0,0,0,0,0,-3.4303,-3.4309,-3.4366,-3.4367,-3.4368,-3.4405,-3.4396,-3.4445,-3.4413,-3.4396,-3.441,-3.4409,-3.4443,-3.4447,-3.4459,-3.4508,-3.451,-3.4475,-3.4476,-3.4478,-3.4479,0,0,0,0,0,0,0,-3.43,-3.4307,-3.4381,-3.4366,-3.4368,-3.4367,-3.4373,-3.4405,-3.4424,-3.4397,-3.4397,-3.4403,-3.4443,-3.4456,-3.446,-3.451,-3.4474,-3.4477,-3.4479,-3.448,-3.4595,-3.4597,0,0,0,0,0,0,-3.4295,-3.4304,-3.4379,-3.4383,-3.4332,-3.437,-3.4376,-3.4394,-3.4424,-3.4428,-3.4404,-3.4403,-3.4452,-3.4457,-3.4462,-3.4511,-3.4478,-3.448,-3.4482,-3.4594,-3.4596,-3.4597,0,0,0,0,0,0,-3.4293,-3.4302,-3.4377,-3.4344,-3.4353,-3.4373,-3.4393,-3.4396,-3.4409,-3.443,-3.4433,-3.4414,-3.4451,-3.4458,-3.4495,-3.4513,-3.4482,-3.4485,-3.4593,-3.4595,-3.4596,-3.4609,0,0,0,0,0,0,-3.429,-3.4301,-3.4317,-3.4344,-3.4355,-3.441,-3.4394,-3.4398,-3.4414,-3.4413,-3.444,-3.4443,-3.4451,-3.449,-3.4498,-3.4516,-3.4487,-3.4591,-3.4594,-3.4596,-3.4607,-3.4611,-3.4614,0,0,0,0,0,-3.4286,-3.4317,-3.4317,-3.4326,-3.4375,-3.4411,-3.4417,-3.4426,-3.4416,-3.4431,-3.4445,-3.4442,-3.451,-3.4494,-3.4503,-3.4522,-3.459,-3.4593,-3.4596,-3.4605,-3.461,-3.4614,0,0,0,0,0,0,-3.429,-3.4321,-3.4321,-3.4362,-3.4384,-3.441,-3.443,-3.4431,-3.4455,-3.4453,-3.4462,-3.4468,-3.4505,-3.4518,-3.45,-3.4563,-3.4549,-3.4553,-3.4553,-3.4558,-3.4562,-3.4557,-3.4489,0,0,0,0,0,-3.4296,-3.4323,-3.4348,-3.4382,-3.4393,-3.441,-3.4426,-3.4431,-3.4454,-3.4462,-3.4479,-3.45,-3.4527,-3.4543,-3.4569,-3.461,-3.4615,-3.4628,-3.4631,-3.4634,-3.4637,-3.466,-3.4666,-3.4606,-3.4606,-3.4606,0,0,-3.4307,-3.4327,-3.4343,-3.4383,-3.44,-3.4428,-3.4417,-3.4446,-3.4466,-3.4466,-3.4502,-3.4516,-3.454,-3.458,-3.4598,-3.4591,-3.4656,-3.4638,-3.464,-3.4642,-3.4664,-3.4669,-3.4674,-3.4608,-3.4608,-3.4608,0,0,-3.4341,-3.436,-3.439,-3.4409,-3.4436,-3.4448,-3.4455,-3.4482,-3.4491,-3.4528,-3.4529,-3.4553,-3.4598,-3.4616,-3.4631,-3.4675,-3.4673,-3.4683,-3.4702,-3.4724,-3.4729,-3.4733,-3.4748,-3.4753,-3.4687,-3.4687,-3.4687,0,-3.4351,-3.4393,-3.4405,-3.4435,-3.4452,-3.4456,-3.4486,-3.4503,-3.4537,-3.4549,-3.4542,-3.4599,-3.4616,-3.466,-3.4671,-3.4683,-3.4691,-3.4679,-3.4727,-3.4732,-3.4736,-3.475,-3.4756,-3.4688,-3.4688,-3.4688,-3.4688,0,-3.4405,-3.4434,-3.4455,-3.4489,-3.4509,-3.4539,-3.4555,-3.4574,-3.4579,-3.4591,-3.4629,-3.465,-3.468,-3.4691,-3.4695,-3.4736,-3.4731,-3.4725,-3.4711,-3.4742,-3.4756,-3.4762,-3.4689,-3.4689,-3.4689,-3.4688,0,0,-3.4439,-3.4482,-3.4489,-3.4505,-3.4537,-3.456,-3.459,-3.4621,-3.4637,-3.4661,-3.4686,-3.4726,-3.4722,-3.4739,-3.4745,-3.4765,-3.4799,-3.4758,-3.4758,-3.4763,-3.4844,-3.4846,-3.4853,-3.4799,-3.48,-3.4801,-3.4842,0,-3.4476,-3.4531,-3.4544,-3.4591,-3.4618,-3.4623,-3.465,-3.4672,-3.4685,-3.471,-3.4724,-3.4752,-3.4745,-3.4755,-3.4775,-3.479,-3.4815,-3.4788,-3.4821,-3.4822,-3.4813,-3.486,-3.4862,-3.49,-3.4847,-3.4848,-3.4849,0,-3.4526,-3.4553,-3.4602,-3.4632,-3.4644,-3.4668,-3.4697,-3.4722,-3.4747,-3.4756,-3.4776,-3.4781,-3.4813,-3.4799,-3.4843,-3.4824,-3.484,-3.4849,-3.4851,-3.4853,-3.4836,-3.4861,-3.4912,-3.4917,-3.4858,-3.4857,-3.4856,0,-3.4545,-3.4594,-3.463,-3.4644,-3.4679,-3.4696,-3.4712,-3.4737,-3.4755,-3.4781,-3.4793,-3.4822,-3.4838,-3.486,-3.4873,-3.4862,-3.4916,-3.4903,-3.4923,-3.4922,-3.4932,-3.493,-3.4984,-3.4945,-3.4944,-3.4944,-3.4944,0,-3.4584,-3.4614,-3.4639,-3.4661,-3.4695,-3.4711,-3.4744,-3.4759,-3.4782,-3.4807,-3.4814,-3.4837,-3.4854,-3.4879,-3.489,-3.4924,-3.4932,-3.4938,-3.494,-3.4937,-3.4936,-3.4945,-3.4942,-3.4946,-3.4946,-3.4945,-3.4945,0,-3.461,-3.4628,-3.4668,-3.47,-3.4708,-3.4732,-3.4759,-3.478,-3.4795,-3.4827,-3.4835,-3.4857,-3.4888,-3.4904,-3.4942,-3.4949,-3.4988,-3.4989,-3.4979,-3.4979,-3.4998,-3.4995,-3.5057,-3.5066,-3.5022,-3.5023,-3.5023,0,-3.4632,-3.4656,-3.4691,-3.4708,-3.4725,-3.4753,-3.4772,-3.4789,-3.4808,-3.4841,-3.4858,-3.489,-3.4916,-3.4964,-3.4983,-3.5013,-3.5014,-3.5034,-3.5018,-3.5014,-3.5013,-3.5011,-3.5013,-3.5036,-3.5036,-3.5036,-3.5037,0,-3.467,-3.4679,-3.4706,-3.4738,-3.4761,-3.4786,-3.4811,-3.4825,-3.4846,-3.4867,-3.4899,-3.492,-3.496,-3.499,-3.5022,-3.5037,-3.504,-3.5042,-3.5048,-3.5043,-3.5036,-3.5039,-3.4985,-3.504,-3.5039,-3.5039,-3.5039,-3.5039,-3.4694,-3.4716,-3.4744,-3.4775,-3.4796,-3.4819,-3.4841,-3.486,-3.4887,-3.4921,-3.493,-3.4964,-3.499,-3.5033,-3.505,-3.5076,-3.5072,-3.5081,-3.5082,-3.5084,-3.5084,-3.5034,-3.5082,-3.5082,-3.5082,-3.5082,-3.5082,0,-3.4731,-3.4751,-3.4779,-3.4814,-3.4839,-3.4842,-3.487,-3.489,-3.492,-3.4945,-3.4971,-3.5009,-3.5039,-3.5062,-3.5093,-3.511,-3.5112,-3.5118,-3.5115,-3.5119,-3.5087,-3.5078,-3.5115,-3.5115,-3.5115,-3.5115,-3.5115,-3.5115,-3.4753,-3.479,-3.4802,-3.4849,-3.4868,-3.4902,-3.4918,-3.494,-3.496,-3.5002,-3.5028,-3.5043,-3.5067,-3.5101,-3.5129,-3.5135,-3.5145,-3.515,-3.5156,-3.5125,-3.5121,-3.5118,-3.5109,-3.5153,-3.5153,-3.5186,-3.5186,-3.5187]},{"header":{"parameterUnit":"m.s-1","parameterCategory":1,"la1":30.2991,"la2":30.254,"lo1":-89.0895,"lo2":-89.0444,"dy":0.0017,"dx":0.0017,"nx":28,"ny":28,"refTime":"2025-04-25T03:00:00:Z","depth":0,"parameterNumber":3,"parameterNumberName":"V-component_of_WINDS"},"data":[0,0,0,0,0,0,0,0,0,0,0,0,0,0,0,0,0,0,0,0,0,0,0,0,0,0,0,0,0,0,0,0,0,0,0,0,0,0,0,0,0,0,0,0,0,0,0,0,0,0,0,0,0,0,0,0,0,0,4.5515,4.5515,0,4.553,4.553,4.553,4.5506,4.5505,4.5504,4.5503,4.5516,4.5517,4.5518,0,0,0,0,0,0,0,0,0,0,0,0,0,4.5467,4.5468,4.5515,4.5515,4.5515,4.5529,4.553,4.553,4.5506,4.5505,4.5504,4.5503,4.5516,4.5517,4.5518,0,0,0,0,0,0,0,0,0,0,0,0,0,4.5485,4.5468,4.5515,4.5505,4.5504,4.5529,4.553,4.553,4.5506,4.5505,4.5504,4.5503,4.5515,4.5517,4.5519,4.5553,0,0,4.5524,4.5524,0,0,0,0,0,0,0,0,4.5484,4.5487,4.5506,4.5506,4.5505,4.5515,4.5517,4.5538,4.5506,4.5505,4.5503,4.5502,4.5517,4.5518,4.5523,4.5554,4.5554,4.5524,4.5525,4.5526,4.5526,0,0,0,0,0,0,0,4.5483,4.5486,4.5521,4.5507,4.5506,4.55,4.5501,4.5521,4.5518,4.5505,4.5504,4.5506,4.5516,4.5522,4.5523,4.5555,4.5524,4.5525,4.5526,4.5527,4.5617,4.5618,0,0,0,0,0,0,4.5483,4.5485,4.552,4.5521,4.5491,4.5502,4.5503,4.5513,4.5517,4.5517,4.5507,4.5505,4.552,4.5522,4.5524,4.5566,4.5526,4.5527,4.5528,4.5615,4.5617,4.5618,0,0,0,0,0,0,4.5482,4.5486,4.552,4.5503,4.5507,4.5504,4.5515,4.5514,4.552,4.5518,4.5518,4.5514,4.5519,4.5522,4.5547,4.5566,4.5528,4.5529,4.5614,4.5616,4.5618,4.5649,0,0,0,0,0,0,4.5481,4.5486,4.5499,4.5503,4.5508,4.5542,4.5516,4.5515,4.5523,4.552,4.5524,4.5524,4.5518,4.5544,4.5548,4.5567,4.5531,4.5612,4.5615,4.5617,4.5647,4.5652,4.5657,0,0,0,0,0,4.5479,4.5506,4.5499,4.5504,4.5524,4.5543,4.5546,4.5539,4.5524,4.5537,4.5537,4.5524,4.5564,4.5547,4.5551,4.5571,4.5611,4.5614,4.5617,4.5644,4.5651,4.5657,0,0,0,0,0,0,4.5502,4.5506,4.5499,4.5529,4.5536,4.5539,4.5555,4.5546,4.5557,4.5554,4.5545,4.5546,4.5573,4.5575,4.5557,4.5606,4.5585,4.5589,4.5604,4.5611,4.5616,4.5615,4.5532,0,0,0,0,0,4.5511,4.5527,4.553,4.5556,4.556,4.5557,4.5566,4.556,4.5567,4.557,4.5571,4.5578,4.5592,4.5602,4.5614,4.5647,4.5648,4.5663,4.5669,4.5673,4.5676,4.5696,4.5702,4.5629,4.5629,4.5629,0,0,4.5529,4.5533,4.5544,4.5561,4.5566,4.5583,4.556,4.5578,4.5591,4.5572,4.5597,4.5598,4.5606,4.5635,4.5648,4.5637,4.5697,4.5677,4.568,4.5681,4.5699,4.5706,4.5713,4.5631,4.563,4.563,0,0,4.557,4.5575,4.5598,4.5605,4.5613,4.5612,4.5618,4.5623,4.5624,4.5649,4.5636,4.5651,4.5675,4.5681,4.5687,4.5735,4.5724,4.574,4.5767,4.5786,4.5792,4.5797,4.5814,4.5821,4.5743,4.5743,4.5743,0,4.5591,4.5617,4.5611,4.5631,4.564,4.5625,4.5649,4.5655,4.5667,4.5674,4.5662,4.5694,4.5697,4.5729,4.5741,4.5746,4.5753,4.5738,4.5791,4.5796,4.5801,4.5818,4.5825,4.5745,4.5745,4.5745,4.5745,0,4.5643,4.5661,4.5678,4.5692,4.5703,4.5725,4.5722,4.5734,4.5728,4.5728,4.5755,4.5759,4.5774,4.5781,4.5775,4.5813,4.5806,4.5793,4.5771,4.581,4.5826,4.5832,4.5748,4.5747,4.5747,4.5746,0,0,4.5696,4.571,4.5716,4.5723,4.5733,4.5747,4.5769,4.5785,4.5795,4.5805,4.5824,4.5846,4.5835,4.5842,4.5837,4.5854,4.5893,4.5839,4.5839,4.5849,4.5936,4.5946,4.5953,4.5886,4.5887,4.5888,4.5936,0,4.5738,4.5777,4.5774,4.581,4.5828,4.5816,4.5836,4.5844,4.5846,4.5861,4.5862,4.5879,4.5862,4.5867,4.5883,4.5885,4.591,4.5881,4.5903,4.5904,4.5901,4.5961,4.5971,4.6016,4.5942,4.5943,4.5943,0,4.5791,4.5805,4.5844,4.5854,4.5862,4.5879,4.5894,4.5909,4.5919,4.5919,4.5929,4.5922,4.5945,4.5923,4.5955,4.5936,4.5945,4.5947,4.5949,4.595,4.5926,4.5964,4.603,4.6036,4.5953,4.5952,4.5951,0,4.5828,4.5856,4.5884,4.589,4.5902,4.5915,4.5921,4.593,4.594,4.5954,4.5961,4.5976,4.5984,4.5997,4.5994,4.5979,4.6027,4.6005,4.6028,4.6028,4.6038,4.6037,4.6105,4.6044,4.6044,4.6044,4.6044,0,4.5875,4.5899,4.5901,4.5917,4.5945,4.5942,4.5969,4.5973,4.5982,4.6,4.599,4.6007,4.6003,4.602,4.6018,4.6045,4.6049,4.605,4.6049,4.605,4.605,4.6056,4.6053,4.6045,4.6045,4.6045,4.6044,0,4.5919,4.5921,4.5951,4.5961,4.5964,4.5984,4.5993,4.6009,4.6011,4.6034,4.6039,4.6042,4.6061,4.6061,4.6082,4.6081,4.6115,4.611,4.6112,4.6111,4.6134,4.6132,4.6208,4.6218,4.615,4.6151,4.6151,0,4.5949,4.5968,4.5981,4.5993,4.6,4.6019,4.6031,4.6029,4.6041,4.6056,4.607,4.609,4.6105,4.6137,4.614,4.6157,4.6153,4.6179,4.6156,4.6157,4.6154,4.6153,4.6155,4.6183,4.6184,4.6184,4.6185,0,4.6002,4.6003,4.602,4.6038,4.6052,4.6066,4.6079,4.6089,4.6089,4.6104,4.6124,4.6136,4.616,4.6179,4.6196,4.6202,4.6194,4.6193,4.6199,4.62,4.6201,4.6202,4.6124,4.619,4.619,4.619,4.6189,4.6189,4.604,4.6057,4.607,4.609,4.61,4.6113,4.613,4.6135,4.6153,4.6172,4.617,4.6194,4.6206,4.6228,4.6235,4.6254,4.6245,4.6253,4.6256,4.6258,4.6261,4.6198,4.6257,4.6257,4.6256,4.6256,4.6256,0,4.6093,4.6101,4.612,4.614,4.6156,4.6149,4.6163,4.6177,4.6198,4.6211,4.6227,4.6251,4.6271,4.6277,4.6296,4.631,4.6307,4.6315,4.6314,4.6315,4.6268,4.6261,4.6317,4.6317,4.6317,4.6317,4.6317,4.6317,4.6122,4.6151,4.6154,4.6189,4.6197,4.6221,4.623,4.6243,4.6253,4.6281,4.6298,4.6303,4.6313,4.6333,4.6351,4.6352,4.636,4.637,4.637,4.6325,4.6318,4.6313,4.6306,4.6371,4.6371,4.6416,4.6416,4.6417]}]]